Вернуться в каталог

QIANFAN-173

АктивенСвязьPO
NORAD 69390·PAYLOAD·🇨🇳 China

Запущен Jun 4, 2026 с Taiyuan Satellite Launch Center

Loading…

Ближайшие Пролёты (ближайшие 24 часа)

TLE

СвежийSource: Space-Track

Эпоха: Sep 14, 2026, 22:21 UTC

1 69390U 26124J   26257.93133926  .00000138  00000-0  19465-3 0  9990
2 69390  89.0064 352.5497 0001640  99.8780 260.2557 13.51021696 14177

Отслеживайте QIANFAN-173 в реальном времени с AllMySat

Download on the App Store